Location: Sternwarte ZA, Rosenfeld-Brittheim
(48.2889°N, 8.6789°E)
Time: 07:19:56
(UTC+01:00)

ISS - Pass Details

Date: 10 December 2019
Orbit: 411 x 421 km, 51.6° (Epoch: 15 December)

Event Time Altitude Azimuth Distance (km) Brightness Sun altitude
Rises 18:23:48 0° 286° (WNW) 2,359 1.1 -17.8°
Reaches altitude 10° 18:26:20 10° 267° (W) 1,494 0.3 -18.2°
Maximum altitude 18:28:41 18° 222° (SW) 1,100 -1.0 -18.6°
Drops below altitude 10° 18:31:03 10° 177° (S) 1,492 -0.9 -19.0°
Enters shadow 18:32:55 - 161° (SSE) 2,108 -0.3 -19.3°
